Westhampton Beach, NY

4:24 PM EDT on September 26, 2017 (GMT -0400)
The Gabreski

Weather History for KFOK - April, 2014

Change the Weather History Date:

Thursday, April 24, 2014

  Actual Average Record
Temperature  
Mean Temperature 52 °F -  
Max Temperature 60 °F 57 °F 77 °F (2007)
Min Temperature 43 °F 37 °F 26 °F (2002)
Degree Days  
Heating Degree Days 14    
Growing Degree Days 2 (Base 50)    
Moisture  
Dew Point 18 °F    
Average Humidity 29    
Maximum Humidity 48    
Minimum Humidity 16    
Precipitation  
Precipitation 0.00 in - - ()
Sea Level Pressure  
Sea Level Pressure 29.84 in    
Wind  
Wind Speed 20 mph (NW)    
Max Wind Speed 29 mph    
Max Gust Speed 43 mph    
Visibility 10 miles    
Events      
Averages and records for this station are not official NWS values.
T = Trace of Precipitation, MM = Missing Value Source: NWS Daily Summary

Daily Weather History Graph

Daily Weather History Graph

Search for Another Location

Airport or City:

Trip Planner

Search our weather history database for the weather conditions in past years. The results will help you decide how hot, cold, wet, or windy it might be!

Date:

Astronomy

Apr. 24, 2014 Rise Set
Actual Time 5:58 AM EDT 7:39 PM EDT
Civil Twilight 5:29 AM EDT 8:08 PM EDT
Nautical Twilight 4:54 AM EDT 8:44 PM EDT
Astronomical Twilight 4:16 AM EDT 9:22 PM EDT
Moon 3:09 AM EDT (4/24) 2:50 PM EDT (4/24)
Length of Visible Light 14h 39m
Length of Day
13h 41m
Waning Crescent, 24% of the Moon is Illuminated
Apr 24
Waning Crescent
Apr 29
New
May 6
First Quarter
May 14
Full
May 21
Last Quarter

Hourly Weather History & Observations

Time (EDT) Temp. Windchill Dew Point Humidity Pressure Visibility Wind Dir Wind Speed Gust Speed Precip Events Conditions
12:53 AM 46.9 °F - 28.0 °F 48% 29.77 in 10.0 mi NW 21.9 mph 27.6 mph N/A   Overcast
1:53 AM 46.0 °F 38.3 °F 26.1 °F 46% 29.76 in 10.0 mi NW 20.7 mph 26.5 mph N/A   Clear
2:53 AM 45.0 °F 38.2 °F 26.1 °F 48% 29.76 in 10.0 mi NW 15.0 mph 25.3 mph N/A   Clear
3:53 AM 45.0 °F 37.1 °F 24.1 °F 44% 29.78 in 10.0 mi NW 19.6 mph 27.6 mph N/A   Clear
4:53 AM 44.1 °F 37.1 °F 25.0 °F 47% 29.78 in 10.0 mi NW 15.0 mph 23.0 mph N/A   Clear
5:53 AM 43.0 °F 35.7 °F 21.9 °F 43% 29.80 in 10.0 mi NW 15.0 mph 23.0 mph N/A   Clear
6:53 AM 44.1 °F 36.2 °F 18.0 °F 35% 29.82 in 10.0 mi NW 18.4 mph 31.1 mph N/A   Clear
7:53 AM 46.0 °F 38.5 °F 16.0 °F 30% 29.83 in 10.0 mi NW 19.6 mph 40.3 mph N/A   Clear
8:53 AM 46.9 °F - 15.1 °F 28% 29.84 in 10.0 mi NW 20.7 mph 31.1 mph N/A   Clear
9:53 AM 50.0 °F - 14.0 °F 24% 29.83 in 10.0 mi WNW 23.0 mph 29.9 mph N/A   Clear
10:53 AM 52.0 °F - 12.0 °F 20% 29.82 in 10.0 mi NW 28.8 mph 42.6 mph N/A   Clear
11:53 AM 55.9 °F - 14.0 °F 19% 29.83 in 10.0 mi NW 25.3 mph 34.5 mph N/A   Clear
12:53 PM 57.0 °F - 12.9 °F 18% 29.83 in 10.0 mi NW 26.5 mph 35.7 mph N/A   Clear
1:53 PM 57.0 °F - 14.0 °F 18% 29.81 in 10.0 mi NW 26.5 mph 36.8 mph N/A   Clear
2:53 PM 59.0 °F - 15.1 °F 18% 29.82 in 10.0 mi WNW 24.2 mph 38.0 mph N/A   Clear
3:53 PM 60.1 °F - 14.0 °F 16% 29.81 in 10.0 mi NW 17.3 mph 36.8 mph N/A   Clear
4:53 PM 59.0 °F - 14.0 °F 17% 29.83 in 10.0 mi NW 26.5 mph 35.7 mph N/A   Clear
5:53 PM 57.9 °F - 16.0 °F 19% 29.84 in 10.0 mi NW 17.3 mph 28.8 mph N/A   Clear
6:53 PM 57.0 °F - 15.1 °F 19% 29.87 in 10.0 mi NW 17.3 mph 28.8 mph N/A   Clear
7:53 PM 54.0 °F - 17.1 °F 23% 29.90 in 10.0 mi NW 12.7 mph 21.9 mph N/A   Clear
8:53 PM 52.0 °F - 17.1 °F 25% 29.94 in 10.0 mi NW 9.2 mph - N/A   Clear
9:53 PM 51.1 °F - 18.0 °F 27% 29.96 in 10.0 mi NW 9.2 mph - N/A   Clear
10:53 PM 50.0 °F - 19.0 °F 29% 29.98 in 10.0 mi NW 13.8 mph 21.9 mph N/A   Clear
11:53 PM 48.9 °F - 21.0 °F 33% 29.99 in 10.0 mi NNW 11.5 mph - N/A   Clear